Year,Month,Day,Hour,Minute,Value (Times are PST for temperature in C)
2019,03,31,00,00,6.10
2019,03,31,00,01,6.10
2019,03,31,00,02,6.10
2019,03,31,00,03,6.20
2019,03,31,00,04,6.20
2019,03,31,00,05,6.10
2019,03,31,00,06,6.10
2019,03,31,00,07,6.00
2019,03,31,00,08,6.00
2019,03,31,00,09,5.90
2019,03,31,00,10,5.90
2019,03,31,00,11,5.80
2019,03,31,00,12,5.80
2019,03,31,00,13,5.70
2019,03,31,00,14,5.70
2019,03,31,00,15,5.70
2019,03,31,00,16,5.70
2019,03,31,00,17,5.60
2019,03,31,00,18,5.60
2019,03,31,00,19,5.60
2019,03,31,00,20,5.50
2019,03,31,00,21,5.50
2019,03,31,00,22,5.50
2019,03,31,00,23,5.50
2019,03,31,00,24,5.40
2019,03,31,00,25,5.50
2019,03,31,00,26,5.50
2019,03,31,00,27,5.40
2019,03,31,00,28,5.40
2019,03,31,00,29,5.40
2019,03,31,00,30,5.40
2019,03,31,00,31,5.30
2019,03,31,00,32,5.30
2019,03,31,00,33,5.30
2019,03,31,00,34,5.30
2019,03,31,00,35,5.20
2019,03,31,00,36,5.20
2019,03,31,00,37,5.20
2019,03,31,00,38,5.20
2019,03,31,00,39,5.20
2019,03,31,00,40,5.20
2019,03,31,00,41,5.20
2019,03,31,00,42,5.10
2019,03,31,00,43,5.10
2019,03,31,00,44,5.10
2019,03,31,00,45,5.00
2019,03,31,00,46,5.00
2019,03,31,00,47,4.90
2019,03,31,00,48,4.90
2019,03,31,00,49,4.90
2019,03,31,00,50,4.90
2019,03,31,00,51,4.90
2019,03,31,00,52,4.90
2019,03,31,00,53,4.90
2019,03,31,00,54,4.90
2019,03,31,00,55,4.90
2019,03,31,00,56,4.90
2019,03,31,00,57,4.90
2019,03,31,00,58,4.90
2019,03,31,00,59,4.90
2019,03,31,01,00,5.00
2019,03,31,01,01,5.00
2019,03,31,01,02,5.10
2019,03,31,01,03,5.10
2019,03,31,01,04,5.10
2019,03,31,01,05,5.10
2019,03,31,01,06,5.10
2019,03,31,01,07,5.10
2019,03,31,01,08,5.10
2019,03,31,01,09,5.10
2019,03,31,01,10,5.10
2019,03,31,01,11,5.10
2019,03,31,01,12,5.00
2019,03,31,01,13,5.00
2019,03,31,01,14,5.00
2019,03,31,01,15,5.00
2019,03,31,01,16,5.00
2019,03,31,01,17,4.90
2019,03,31,01,18,4.90
2019,03,31,01,19,4.90
2019,03,31,01,20,4.90
2019,03,31,01,21,4.90
2019,03,31,01,22,4.90
2019,03,31,01,23,4.90
2019,03,31,01,24,4.90
2019,03,31,01,25,5.00
2019,03,31,01,26,5.00
2019,03,31,01,27,5.00
2019,03,31,01,28,5.00
2019,03,31,01,29,5.00
2019,03,31,01,30,5.00
2019,03,31,01,31,5.00
2019,03,31,01,32,5.10
2019,03,31,01,33,5.00
2019,03,31,01,34,5.10
2019,03,31,01,35,5.00
2019,03,31,01,36,5.00
2019,03,31,01,37,5.00
2019,03,31,01,38,5.00
2019,03,31,01,39,5.00
2019,03,31,01,40,5.00
2019,03,31,01,41,5.00
2019,03,31,01,42,4.90
2019,03,31,01,43,4.90
2019,03,31,01,44,4.90
2019,03,31,01,45,4.90
2019,03,31,01,46,4.90
2019,03,31,01,47,4.80
2019,03,31,01,48,4.80
2019,03,31,01,49,4.80
2019,03,31,01,50,4.80
2019,03,31,01,51,4.80
2019,03,31,01,52,4.80
2019,03,31,01,53,4.80
2019,03,31,01,54,4.70
2019,03,31,01,55,4.70
2019,03,31,01,56,4.70
2019,03,31,01,57,4.70
2019,03,31,01,58,4.60
2019,03,31,01,59,4.60
2019,03,31,02,00,4.60
2019,03,31,02,01,4.60
2019,03,31,02,02,4.60
2019,03,31,02,03,4.60
2019,03,31,02,04,4.60
2019,03,31,02,05,4.60
2019,03,31,02,06,4.60
2019,03,31,02,07,4.60
2019,03,31,02,08,4.60
2019,03,31,02,09,4.50
2019,03,31,02,10,4.50
2019,03,31,02,11,4.50
2019,03,31,02,12,4.50
2019,03,31,02,13,4.50
2019,03,31,02,14,4.40
2019,03,31,02,15,4.40
2019,03,31,02,16,4.40
2019,03,31,02,17,4.40
2019,03,31,02,18,4.30
2019,03,31,02,19,4.30
2019,03,31,02,20,4.30
2019,03,31,02,21,4.30
2019,03,31,02,22,4.20
2019,03,31,02,23,4.20
2019,03,31,02,24,4.20
2019,03,31,02,25,4.20
2019,03,31,02,26,4.20
2019,03,31,02,27,4.20
2019,03,31,02,28,4.20
2019,03,31,02,29,4.20
2019,03,31,02,30,4.20
2019,03,31,02,31,4.20
2019,03,31,02,32,4.20
2019,03,31,02,33,4.20
2019,03,31,02,34,4.10
2019,03,31,02,35,4.10
2019,03,31,02,36,4.10
2019,03,31,02,37,4.10
2019,03,31,02,38,4.00
2019,03,31,02,39,4.00
2019,03,31,02,40,4.00
2019,03,31,02,41,3.90
2019,03,31,02,42,3.90
2019,03,31,02,43,3.80
2019,03,31,02,44,3.80
2019,03,31,02,45,3.80
2019,03,31,02,46,3.70
2019,03,31,02,47,3.70
2019,03,31,02,48,3.70
2019,03,31,02,49,3.60
2019,03,31,02,50,3.60
2019,03,31,02,51,3.60
2019,03,31,02,52,3.60
2019,03,31,02,53,3.60
2019,03,31,02,54,3.60
2019,03,31,02,55,3.60
2019,03,31,02,56,3.60
2019,03,31,02,57,3.60
2019,03,31,02,58,3.60
2019,03,31,02,59,3.70
2019,03,31,03,00,3.70
2019,03,31,03,01,3.70
2019,03,31,03,02,3.70
2019,03,31,03,03,3.70
2019,03,31,03,04,3.70
2019,03,31,03,05,3.70
2019,03,31,03,06,3.60
2019,03,31,03,07,3.60
2019,03,31,03,08,3.60
2019,03,31,03,09,3.50
2019,03,31,03,10,3.50
2019,03,31,03,11,3.50
2019,03,31,03,12,3.50
2019,03,31,03,13,3.50
2019,03,31,03,14,3.50
2019,03,31,03,15,3.50
2019,03,31,03,16,3.40
2019,03,31,03,17,3.40
2019,03,31,03,18,3.40
2019,03,31,03,19,3.40
2019,03,31,03,20,3.40
2019,03,31,03,21,3.40
2019,03,31,03,22,3.40
2019,03,31,03,23,3.40
2019,03,31,03,24,3.40
2019,03,31,03,25,3.40
2019,03,31,03,26,3.30
2019,03,31,03,27,3.30
2019,03,31,03,28,3.30
2019,03,31,03,29,3.30
2019,03,31,03,30,3.30
2019,03,31,03,31,3.30
2019,03,31,03,32,3.30
2019,03,31,03,33,3.30
2019,03,31,03,34,3.30
2019,03,31,03,35,3.30
2019,03,31,03,36,3.30
2019,03,31,03,37,3.30
2019,03,31,03,38,3.30
2019,03,31,03,39,3.30
2019,03,31,03,40,3.30
2019,03,31,03,41,3.30
2019,03,31,03,42,3.30
2019,03,31,03,43,3.30
2019,03,31,03,44,3.30
2019,03,31,03,45,3.30
2019,03,31,03,46,3.30
2019,03,31,03,47,3.30
2019,03,31,03,48,3.30
2019,03,31,03,49,3.30
2019,03,31,03,50,3.30
2019,03,31,03,51,3.20
2019,03,31,03,52,3.20
2019,03,31,03,53,3.20
2019,03,31,03,54,3.20
2019,03,31,03,55,3.20
2019,03,31,03,56,3.20
2019,03,31,03,57,3.20
2019,03,31,03,58,3.20
2019,03,31,03,59,3.20
2019,03,31,04,00,3.20
2019,03,31,04,01,3.20
2019,03,31,04,02,3.10
2019,03,31,04,03,3.10
2019,03,31,04,04,3.10
2019,03,31,04,05,3.10
2019,03,31,04,06,3.10
2019,03,31,04,07,3.10
2019,03,31,04,08,3.10
2019,03,31,04,09,3.00
2019,03,31,04,10,3.00
2019,03,31,04,11,3.00
2019,03,31,04,12,3.00
2019,03,31,04,13,3.00
2019,03,31,04,14,3.00
2019,03,31,04,15,3.00
2019,03,31,04,16,3.00
2019,03,31,04,17,3.00
2019,03,31,04,18,3.10
2019,03,31,04,19,3.10
2019,03,31,04,20,3.10
2019,03,31,04,21,3.10
2019,03,31,04,22,3.10
2019,03,31,04,23,3.10
2019,03,31,04,24,3.10
2019,03,31,04,25,3.10
2019,03,31,04,26,3.10
2019,03,31,04,27,3.10
2019,03,31,04,28,3.10
2019,03,31,04,29,3.10
2019,03,31,04,30,3.10
2019,03,31,04,31,3.00
2019,03,31,04,32,3.00
2019,03,31,04,33,2.90
2019,03,31,04,34,2.90
2019,03,31,04,35,2.90
2019,03,31,04,36,2.80
2019,03,31,04,37,2.80
2019,03,31,04,38,2.80
2019,03,31,04,39,2.70
2019,03,31,04,40,2.70
2019,03,31,04,41,2.70
2019,03,31,04,42,2.70
2019,03,31,04,43,2.70
2019,03,31,04,44,2.60
2019,03,31,04,45,2.60
2019,03,31,04,46,2.50
2019,03,31,04,47,2.50
2019,03,31,04,48,2.50
2019,03,31,04,49,2.40
2019,03,31,04,50,2.40
2019,03,31,04,51,2.40
2019,03,31,04,52,2.30
2019,03,31,04,53,2.30
2019,03,31,04,54,2.30
2019,03,31,04,55,2.20
2019,03,31,04,56,2.20
2019,03,31,04,57,2.20
2019,03,31,04,58,2.20
2019,03,31,04,59,2.20
2019,03,31,05,00,2.30
2019,03,31,05,01,2.30
2019,03,31,05,02,2.30
2019,03,31,05,03,2.30
2019,03,31,05,04,2.30
2019,03,31,05,05,2.30
2019,03,31,05,06,2.30
2019,03,31,05,07,2.30
2019,03,31,05,08,2.30
2019,03,31,05,09,2.30
2019,03,31,05,10,2.30
2019,03,31,05,11,2.40
2019,03,31,05,12,2.40
2019,03,31,05,13,2.40
2019,03,31,05,14,2.40
2019,03,31,05,15,2.30
2019,03,31,05,16,2.30
2019,03,31,05,17,2.30
2019,03,31,05,18,2.30
2019,03,31,05,19,2.20
2019,03,31,05,20,2.20
2019,03,31,05,21,2.20
2019,03,31,05,22,2.20
2019,03,31,05,23,2.10
2019,03,31,05,24,2.10
2019,03,31,05,25,2.10
2019,03,31,05,26,2.10
2019,03,31,05,27,2.20
2019,03,31,05,28,2.20
2019,03,31,05,29,2.20
2019,03,31,05,30,2.20
2019,03,31,05,31,2.20
2019,03,31,05,32,2.10
2019,03,31,05,33,2.10
2019,03,31,05,34,2.00
2019,03,31,05,35,2.00
2019,03,31,05,36,1.90
2019,03,31,05,37,1.90
2019,03,31,05,38,1.90
2019,03,31,05,39,1.80
2019,03,31,05,40,1.80
2019,03,31,05,41,1.70
2019,03,31,05,42,1.70
2019,03,31,05,43,1.70
2019,03,31,05,44,1.70
2019,03,31,05,45,1.70
2019,03,31,05,46,1.70
2019,03,31,05,47,1.70
2019,03,31,05,48,1.80
2019,03,31,05,49,1.80
2019,03,31,05,50,1.80
2019,03,31,05,51,1.90
2019,03,31,05,52,1.90
2019,03,31,05,53,1.90
2019,03,31,05,54,1.90
2019,03,31,05,55,1.90
2019,03,31,05,56,1.90
2019,03,31,05,57,1.90
2019,03,31,05,58,1.90
2019,03,31,05,59,2.00
2019,03,31,06,00,2.00
2019,03,31,06,01,2.10
2019,03,31,06,02,2.00
2019,03,31,06,03,2.00
2019,03,31,06,04,2.00
2019,03,31,06,05,1.90
2019,03,31,06,06,1.90
2019,03,31,06,07,1.80
2019,03,31,06,08,1.80
2019,03,31,06,09,1.80
2019,03,31,06,10,1.80
2019,03,31,06,11,1.70
2019,03,31,06,12,1.70
2019,03,31,06,13,1.70
2019,03,31,06,14,1.70
2019,03,31,06,15,1.70
2019,03,31,06,16,1.70
2019,03,31,06,17,1.70
2019,03,31,06,18,1.80
2019,03,31,06,19,1.80
2019,03,31,06,20,1.80
2019,03,31,06,21,1.80
2019,03,31,06,22,1.80
2019,03,31,06,23,1.80
2019,03,31,06,24,1.80
2019,03,31,06,25,1.90
2019,03,31,06,26,1.90
2019,03,31,06,27,1.90
2019,03,31,06,28,1.90
2019,03,31,06,29,1.80
2019,03,31,06,30,1.70
2019,03,31,06,31,1.70
2019,03,31,06,32,1.60
2019,03,31,06,33,1.50
2019,03,31,06,34,1.40
2019,03,31,06,35,1.40
2019,03,31,06,36,1.30
2019,03,31,06,37,1.30
2019,03,31,06,38,1.30
2019,03,31,06,39,1.30
2019,03,31,06,40,1.20
2019,03,31,06,41,1.20
2019,03,31,06,42,1.20
2019,03,31,06,43,1.30
2019,03,31,06,44,1.30
2019,03,31,06,45,1.30
2019,03,31,06,46,1.30
2019,03,31,06,47,1.30
2019,03,31,06,48,1.30
2019,03,31,06,49,1.20
2019,03,31,06,50,1.20
2019,03,31,06,51,1.20
2019,03,31,06,52,1.20
2019,03,31,06,53,1.20
2019,03,31,06,54,1.20
2019,03,31,06,55,1.20
2019,03,31,06,56,1.10
2019,03,31,06,57,1.10
2019,03,31,06,58,1.10
2019,03,31,06,59,1.10
2019,03,31,07,00,1.10
2019,03,31,07,01,1.00
2019,03,31,07,02,1.00
2019,03,31,07,03,1.00
2019,03,31,07,04,1.00
2019,03,31,07,05,1.00
2019,03,31,07,06,1.00
2019,03,31,07,07,1.00
2019,03,31,07,08,1.00
2019,03,31,07,09,1.10
2019,03,31,07,10,1.10
2019,03,31,07,11,1.20
2019,03,31,07,12,1.20
2019,03,31,07,13,1.30
2019,03,31,07,14,1.30
2019,03,31,07,15,1.30
2019,03,31,07,16,1.40
2019,03,31,07,17,1.40
2019,03,31,07,18,1.40
2019,03,31,07,19,1.40
2019,03,31,07,20,1.50
2019,03,31,07,21,1.60
2019,03,31,07,22,1.60
2019,03,31,07,23,1.60
2019,03,31,07,24,1.60
2019,03,31,07,25,1.60
2019,03,31,07,26,1.50
2019,03,31,07,27,1.50
2019,03,31,07,28,1.50
2019,03,31,07,29,1.50
2019,03,31,07,30,1.50
2019,03,31,07,31,1.50
2019,03,31,07,32,1.60
2019,03,31,07,33,1.60
2019,03,31,07,34,1.60
2019,03,31,07,35,1.70
2019,03,31,07,36,1.70
2019,03,31,07,37,1.70
2019,03,31,07,38,1.70
2019,03,31,07,39,1.70
2019,03,31,07,40,1.70
2019,03,31,07,41,1.70
2019,03,31,07,42,1.70
2019,03,31,07,43,1.70
2019,03,31,07,44,1.70
2019,03,31,07,45,1.70
2019,03,31,07,46,1.70
2019,03,31,07,47,1.60
2019,03,31,07,48,1.60
2019,03,31,07,49,1.60
2019,03,31,07,50,1.50
2019,03,31,07,51,1.50
2019,03,31,07,52,1.40
2019,03,31,07,53,1.40
2019,03,31,07,54,1.30
2019,03,31,07,55,1.20
2019,03,31,07,56,1.20
2019,03,31,07,57,1.20
2019,03,31,07,58,1.30
2019,03,31,07,59,1.30
2019,03,31,08,00,1.40
2019,03,31,08,01,1.40
2019,03,31,08,02,1.50
2019,03,31,08,03,1.50
2019,03,31,08,04,1.50
2019,03,31,08,05,1.50
2019,03,31,08,06,1.50
2019,03,31,08,07,1.50
2019,03,31,08,08,1.50
2019,03,31,08,09,1.50
2019,03,31,08,10,1.40
2019,03,31,08,11,1.40
2019,03,31,08,12,1.40
2019,03,31,08,13,1.40
2019,03,31,08,14,1.40
2019,03,31,08,15,1.40
2019,03,31,08,16,1.40
2019,03,31,08,17,1.40
2019,03,31,08,18,1.50
2019,03,31,08,19,1.50
2019,03,31,08,20,1.60
2019,03,31,08,21,1.60
2019,03,31,08,22,1.70
2019,03,31,08,23,1.70
2019,03,31,08,24,1.80
2019,03,31,08,25,1.90
2019,03,31,08,26,2.00
2019,03,31,08,27,2.00
2019,03,31,08,28,2.10
2019,03,31,08,29,2.10
2019,03,31,08,30,2.20
2019,03,31,08,31,2.30
2019,03,31,08,32,2.30
2019,03,31,08,33,2.40
2019,03,31,08,34,2.40
2019,03,31,08,35,2.40
2019,03,31,08,36,2.40
2019,03,31,08,37,2.50
2019,03,31,08,38,2.50
2019,03,31,08,39,2.60
2019,03,31,08,40,2.60
2019,03,31,08,41,2.70
2019,03,31,08,42,2.70
2019,03,31,08,43,2.70
2019,03,31,08,44,2.70
2019,03,31,08,45,2.80
2019,03,31,08,46,2.80
2019,03,31,08,47,2.80
2019,03,31,08,48,2.90
2019,03,31,08,49,2.90
2019,03,31,08,50,2.90
2019,03,31,08,51,2.90
2019,03,31,08,52,3.00
2019,03,31,08,53,3.00
2019,03,31,08,54,3.10
2019,03,31,08,55,3.20
2019,03,31,08,56,3.20
2019,03,31,08,57,3.30
2019,03,31,08,58,3.30
2019,03,31,08,59,3.40
2019,03,31,09,00,3.40
2019,03,31,09,01,3.50
2019,03,31,09,02,3.50
2019,03,31,09,03,3.60
2019,03,31,09,04,3.70
2019,03,31,09,05,3.80
2019,03,31,09,06,3.90
2019,03,31,09,07,4.00
2019,03,31,09,08,4.10
2019,03,31,09,09,4.20
2019,03,31,09,10,4.30
2019,03,31,09,11,4.30
2019,03,31,09,12,4.40
2019,03,31,09,13,4.40
2019,03,31,09,14,4.50
2019,03,31,09,15,4.50
2019,03,31,09,16,4.60
2019,03,31,09,17,4.70
2019,03,31,09,18,4.70
2019,03,31,09,19,4.80
2019,03,31,09,20,4.80
2019,03,31,09,21,4.90
2019,03,31,09,22,5.10
2019,03,31,09,23,5.20
2019,03,31,09,24,5.30
2019,03,31,09,25,5.30
2019,03,31,09,26,5.40
2019,03,31,09,27,5.50
2019,03,31,09,28,5.50
2019,03,31,09,29,5.60
2019,03,31,09,30,5.60
2019,03,31,09,31,5.60
2019,03,31,09,32,5.70
2019,03,31,09,33,5.70
2019,03,31,09,34,5.70
2019,03,31,09,35,5.70
2019,03,31,09,36,5.60
2019,03,31,09,37,5.60
2019,03,31,09,38,5.70
2019,03,31,09,39,5.70
2019,03,31,09,40,5.70
2019,03,31,09,41,5.80
2019,03,31,09,42,5.80
2019,03,31,09,43,5.90
2019,03,31,09,44,6.00
2019,03,31,09,45,6.10
2019,03,31,09,46,6.30
2019,03,31,09,47,6.30
2019,03,31,09,48,6.40
2019,03,31,09,49,6.40
2019,03,31,09,50,6.50
2019,03,31,09,51,6.50
2019,03,31,09,52,6.50
2019,03,31,09,53,6.50
2019,03,31,09,54,6.60
2019,03,31,09,55,6.60
2019,03,31,09,56,6.60
2019,03,31,09,57,6.60
2019,03,31,09,58,6.60
2019,03,31,09,59,6.60
2019,03,31,10,00,6.60
2019,03,31,10,01,6.60
2019,03,31,10,02,6.60
2019,03,31,10,03,6.60
2019,03,31,10,04,6.70
2019,03,31,10,05,6.70
2019,03,31,10,06,6.80
2019,03,31,10,07,6.80
2019,03,31,10,08,6.80
2019,03,31,10,09,6.80
2019,03,31,10,10,6.80
2019,03,31,10,11,6.80
2019,03,31,10,12,6.80
2019,03,31,10,13,6.90
2019,03,31,10,14,6.90
2019,03,31,10,15,7.00
2019,03,31,10,16,7.00
2019,03,31,10,17,7.10
2019,03,31,10,18,7.10
2019,03,31,10,19,7.10
2019,03,31,10,20,7.10
2019,03,31,10,21,7.10
2019,03,31,10,22,7.10
2019,03,31,10,23,7.00
2019,03,31,10,24,6.90
2019,03,31,10,25,6.90
2019,03,31,10,26,6.90
2019,03,31,10,27,6.90
2019,03,31,10,28,6.90
2019,03,31,10,29,6.90
2019,03,31,10,30,6.90
2019,03,31,10,31,6.90
2019,03,31,10,32,6.80
2019,03,31,10,33,6.80
2019,03,31,10,34,6.80
2019,03,31,10,35,6.80
2019,03,31,10,36,6.80
2019,03,31,10,37,6.80
2019,03,31,10,38,6.90
2019,03,31,10,39,7.00
2019,03,31,10,40,7.00
2019,03,31,10,41,7.10
2019,03,31,10,42,7.10
2019,03,31,10,43,7.10
2019,03,31,10,44,7.20
2019,03,31,10,45,7.20
2019,03,31,10,46,7.30
2019,03,31,10,47,7.30
2019,03,31,10,48,7.30
2019,03,31,10,49,7.30
2019,03,31,10,50,7.30
2019,03,31,10,51,7.40
2019,03,31,10,52,7.40
2019,03,31,10,53,7.50
2019,03,31,10,54,7.50
2019,03,31,10,55,7.50
2019,03,31,10,56,7.50
2019,03,31,10,57,7.40
2019,03,31,10,58,7.40
2019,03,31,10,59,7.40
2019,03,31,11,00,7.40
2019,03,31,11,01,7.40
2019,03,31,11,02,7.50
2019,03,31,11,03,7.50
2019,03,31,11,04,7.50
2019,03,31,11,05,7.60
2019,03,31,11,06,7.60
2019,03,31,11,07,7.60
2019,03,31,11,08,7.60
2019,03,31,11,09,7.50
2019,03,31,11,10,7.50
2019,03,31,11,11,7.50
2019,03,31,11,12,7.60
2019,03,31,11,13,7.60
2019,03,31,11,14,7.60
2019,03,31,11,15,7.70
2019,03,31,11,16,7.70
2019,03,31,11,17,7.80
2019,03,31,11,18,7.80
2019,03,31,11,19,7.80
2019,03,31,11,20,7.90
2019,03,31,11,21,8.00
2019,03,31,11,22,8.10
2019,03,31,11,23,8.20
2019,03,31,11,24,8.20
2019,03,31,11,25,8.20
2019,03,31,11,26,8.20
2019,03,31,11,27,8.10
2019,03,31,11,28,8.10
2019,03,31,11,29,8.10
2019,03,31,11,30,8.10
2019,03,31,11,31,8.20
2019,03,31,11,32,8.30
2019,03,31,11,33,8.30
2019,03,31,11,34,8.30
2019,03,31,11,35,8.30
2019,03,31,11,36,8.30
2019,03,31,11,37,8.40
2019,03,31,11,38,8.50
2019,03,31,11,39,8.60
2019,03,31,11,40,8.70
2019,03,31,11,41,8.80
2019,03,31,11,42,8.90
2019,03,31,11,43,9.00
2019,03,31,11,44,9.10
2019,03,31,11,45,9.20
2019,03,31,11,46,9.30
2019,03,31,11,47,9.50
2019,03,31,11,48,9.60
2019,03,31,11,49,9.80
2019,03,31,11,50,10.00
2019,03,31,11,51,10.00
2019,03,31,11,52,10.20
2019,03,31,11,53,10.20
2019,03,31,11,54,10.30
2019,03,31,11,55,10.30
2019,03,31,11,56,10.30
2019,03,31,11,57,10.20
2019,03,31,11,58,10.20
2019,03,31,11,59,10.20
2019,03,31,12,00,10.10
2019,03,31,12,01,10.10
2019,03,31,12,02,10.00
2019,03,31,12,03,10.00
2019,03,31,12,04,10.00
2019,03,31,12,05,9.90
2019,03,31,12,06,9.80
2019,03,31,12,07,9.70
2019,03,31,12,08,9.60
2019,03,31,12,09,9.50
2019,03,31,12,10,9.40
2019,03,31,12,11,9.40
2019,03,31,12,12,9.40
2019,03,31,12,13,9.50
2019,03,31,12,14,9.50
2019,03,31,12,15,9.50
2019,03,31,12,16,9.40
2019,03,31,12,17,9.40
2019,03,31,12,18,9.30
2019,03,31,12,19,9.30
2019,03,31,12,20,9.30
2019,03,31,12,21,9.30
2019,03,31,12,22,9.40
2019,03,31,12,23,9.40
2019,03,31,12,24,9.50
2019,03,31,12,25,9.60
2019,03,31,12,26,9.60
2019,03,31,12,27,9.50
2019,03,31,12,28,9.50
2019,03,31,12,29,9.40
2019,03,31,12,30,9.40
2019,03,31,12,31,9.40
2019,03,31,12,32,9.40
2019,03,31,12,33,9.50
2019,03,31,12,34,9.60
2019,03,31,12,35,9.70
2019,03,31,12,36,9.80
2019,03,31,12,37,9.90
2019,03,31,12,38,10.00
2019,03,31,12,39,10.00
2019,03,31,12,40,9.90
2019,03,31,12,41,9.80
2019,03,31,12,42,9.80
2019,03,31,12,43,9.80
2019,03,31,12,44,9.90
2019,03,31,12,45,10.00
2019,03,31,12,46,10.10
2019,03,31,12,47,10.30
2019,03,31,12,48,10.40
2019,03,31,12,49,10.50
2019,03,31,12,50,10.60
2019,03,31,12,51,10.80
2019,03,31,12,52,10.90
2019,03,31,12,53,11.00
2019,03,31,12,54,11.10
2019,03,31,12,55,11.20
2019,03,31,12,56,11.20
2019,03,31,12,57,11.20
2019,03,31,12,58,11.20
2019,03,31,12,59,11.20
2019,03,31,13,00,11.20
2019,03,31,13,01,11.20
2019,03,31,13,02,11.20
2019,03,31,13,03,11.20
2019,03,31,13,04,11.20
2019,03,31,13,05,11.30
2019,03,31,13,06,11.30
2019,03,31,13,07,11.30
2019,03,31,13,08,11.30
2019,03,31,13,09,11.30
2019,03,31,13,10,11.20
2019,03,31,13,11,11.10
2019,03,31,13,12,11.00
2019,03,31,13,13,10.90
2019,03,31,13,14,10.90
2019,03,31,13,15,10.90
2019,03,31,13,16,10.80
2019,03,31,13,17,10.70
2019,03,31,13,18,10.70
2019,03,31,13,19,10.60
2019,03,31,13,20,10.60
2019,03,31,13,21,10.50
2019,03,31,13,22,10.50
2019,03,31,13,23,10.50
2019,03,31,13,24,10.50
2019,03,31,13,25,10.50
2019,03,31,13,26,10.50
2019,03,31,13,27,10.50
2019,03,31,13,28,10.60
2019,03,31,13,29,10.50
2019,03,31,13,30,10.50
2019,03,31,13,31,10.50
2019,03,31,13,32,10.50
2019,03,31,13,33,10.50
2019,03,31,13,34,10.50
2019,03,31,13,35,10.40
2019,03,31,13,36,10.40
2019,03,31,13,37,10.40
2019,03,31,13,38,10.40
2019,03,31,13,39,10.50
2019,03,31,13,40,10.50
2019,03,31,13,41,10.50
2019,03,31,13,42,10.60
2019,03,31,13,43,10.50
2019,03,31,13,44,10.50
2019,03,31,13,45,10.50
2019,03,31,13,46,10.50
2019,03,31,13,47,10.50
2019,03,31,13,48,10.50
2019,03,31,13,49,10.60
2019,03,31,13,50,10.70
2019,03,31,13,51,10.80
2019,03,31,13,52,10.80
2019,03,31,13,53,10.90
2019,03,31,13,54,11.00
2019,03,31,13,55,11.10
2019,03,31,13,56,11.10
2019,03,31,13,57,11.10
2019,03,31,13,58,11.10
2019,03,31,13,59,11.10
2019,03,31,14,00,11.20
2019,03,31,14,01,11.20
2019,03,31,14,02,11.30
2019,03,31,14,03,11.30
2019,03,31,14,04,11.30
2019,03,31,14,05,11.40
2019,03,31,14,06,11.40
2019,03,31,14,07,11.40
2019,03,31,14,08,11.30
2019,03,31,14,09,11.20
2019,03,31,14,10,11.10
2019,03,31,14,11,11.10
2019,03,31,14,12,11.10
2019,03,31,14,13,11.00
2019,03,31,14,14,11.00
2019,03,31,14,15,10.90
2019,03,31,14,16,10.90
2019,03,31,14,17,10.90
2019,03,31,14,18,10.90
2019,03,31,14,19,11.00
2019,03,31,14,20,11.10
2019,03,31,14,21,11.20
2019,03,31,14,22,11.20
2019,03,31,14,23,11.20
2019,03,31,14,24,11.20
2019,03,31,14,25,11.20
2019,03,31,14,26,11.20
2019,03,31,14,27,11.20
2019,03,31,14,28,11.20
2019,03,31,14,29,11.30
2019,03,31,14,30,11.40
2019,03,31,14,31,11.50
2019,03,31,14,32,11.50
2019,03,31,14,33,11.70
2019,03,31,14,34,11.80
2019,03,31,14,35,11.80
2019,03,31,14,36,11.90
2019,03,31,14,37,12.00
2019,03,31,14,38,12.10
2019,03,31,14,39,12.20
2019,03,31,14,40,12.30
2019,03,31,14,41,12.30
2019,03,31,14,42,12.40
2019,03,31,14,43,12.40
2019,03,31,14,44,12.40
2019,03,31,14,45,12.30
2019,03,31,14,46,12.30
2019,03,31,14,47,12.30
2019,03,31,14,48,12.20
2019,03,31,14,49,12.20
2019,03,31,14,50,12.20
2019,03,31,14,51,12.20
2019,03,31,14,52,12.10
2019,03,31,14,53,12.00
2019,03,31,14,54,12.00
2019,03,31,14,55,12.00
2019,03,31,14,56,12.00
2019,03,31,14,57,12.00
2019,03,31,14,58,12.10
2019,03,31,14,59,12.10
2019,03,31,15,00,12.20
2019,03,31,15,01,12.30
2019,03,31,15,02,12.30
2019,03,31,15,03,12.40
2019,03,31,15,04,12.40
2019,03,31,15,05,12.50
2019,03,31,15,06,12.50
2019,03,31,15,07,12.60
2019,03,31,15,08,12.60
2019,03,31,15,09,12.60
2019,03,31,15,10,12.60
2019,03,31,15,11,12.60
2019,03,31,15,12,12.60
2019,03,31,15,13,12.60
2019,03,31,15,14,12.60
2019,03,31,15,15,12.70
2019,03,31,15,16,12.70
2019,03,31,15,17,12.70
2019,03,31,15,18,12.80
2019,03,31,15,19,12.80
2019,03,31,15,20,12.90
2019,03,31,15,21,12.90
2019,03,31,15,22,13.00
2019,03,31,15,23,13.00
2019,03,31,15,24,13.10
2019,03,31,15,25,13.20
2019,03,31,15,26,13.20
2019,03,31,15,27,13.20
2019,03,31,15,28,13.20
2019,03,31,15,29,13.20
2019,03,31,15,30,13.20
2019,03,31,15,31,13.20
2019,03,31,15,32,13.10
2019,03,31,15,33,13.10
2019,03,31,15,34,13.10
2019,03,31,15,35,13.00
2019,03,31,15,36,13.00
2019,03,31,15,37,13.00
2019,03,31,15,38,13.00
2019,03,31,15,39,12.90
2019,03,31,15,40,12.90
2019,03,31,15,41,12.80
2019,03,31,15,42,12.80
2019,03,31,15,43,12.80
2019,03,31,15,44,12.80
2019,03,31,15,45,12.80
2019,03,31,15,46,12.80
2019,03,31,15,47,12.80
2019,03,31,15,48,12.80
2019,03,31,15,49,12.70
2019,03,31,15,50,12.70
2019,03,31,15,51,12.60
2019,03,31,15,52,12.60
2019,03,31,15,53,12.60
2019,03,31,15,54,12.60
2019,03,31,15,55,12.60
2019,03,31,15,56,12.60
2019,03,31,15,57,12.60
2019,03,31,15,58,12.60
2019,03,31,15,59,12.70
2019,03,31,16,00,12.70
2019,03,31,16,01,12.80
2019,03,31,16,02,12.80
2019,03,31,16,03,12.80
2019,03,31,16,04,12.90
2019,03,31,16,05,12.90
2019,03,31,16,06,12.90
2019,03,31,16,07,12.90
2019,03,31,16,08,12.90
2019,03,31,16,09,12.90
2019,03,31,16,10,12.90
2019,03,31,16,11,12.90
2019,03,31,16,12,12.90
2019,03,31,16,13,12.90
2019,03,31,16,14,12.90
2019,03,31,16,15,13.00
2019,03,31,16,16,13.00
2019,03,31,16,17,13.10
2019,03,31,16,18,13.10
2019,03,31,16,19,13.20
2019,03,31,16,20,13.20
2019,03,31,16,21,13.20
2019,03,31,16,22,13.20
2019,03,31,16,23,13.10
2019,03,31,16,24,13.10
2019,03,31,16,25,13.10
2019,03,31,16,26,13.10
2019,03,31,16,27,13.10
2019,03,31,16,28,13.10
2019,03,31,16,29,13.20
2019,03,31,16,30,13.10
2019,03,31,16,31,13.10
2019,03,31,16,32,13.10
2019,03,31,16,33,13.00
2019,03,31,16,34,13.00
2019,03,31,16,35,12.90
2019,03,31,16,36,12.90
2019,03,31,16,37,12.80
2019,03,31,16,38,12.70
2019,03,31,16,39,12.70
2019,03,31,16,40,12.70
2019,03,31,16,41,12.70
2019,03,31,16,42,12.70
2019,03,31,16,43,12.70
2019,03,31,16,44,12.60
2019,03,31,16,45,12.60
2019,03,31,16,46,12.60
2019,03,31,16,47,12.60
2019,03,31,16,48,12.70
2019,03,31,16,49,12.70
2019,03,31,16,50,12.70
2019,03,31,16,51,12.70
2019,03,31,16,52,12.70
2019,03,31,16,53,12.60
2019,03,31,16,54,12.60
2019,03,31,16,55,12.60
2019,03,31,16,56,12.50
2019,03,31,16,57,12.50
2019,03,31,16,58,12.40
2019,03,31,16,59,12.40
2019,03,31,17,00,12.40
2019,03,31,17,01,12.40
2019,03,31,17,02,12.30
2019,03,31,17,03,12.30
2019,03,31,17,04,12.30
2019,03,31,17,05,12.30
2019,03,31,17,06,12.30
2019,03,31,17,07,12.30
2019,03,31,17,08,12.30
2019,03,31,17,09,12.30
2019,03,31,17,10,12.30
2019,03,31,17,11,12.20
2019,03,31,17,12,12.20
2019,03,31,17,13,12.20
2019,03,31,17,14,12.20
2019,03,31,17,15,12.30
2019,03,31,17,16,12.30
2019,03,31,17,17,12.30
2019,03,31,17,18,12.20
2019,03,31,17,19,12.20
2019,03,31,17,20,12.20
2019,03,31,17,21,12.20
2019,03,31,17,22,12.10
2019,03,31,17,23,12.10
2019,03,31,17,24,12.00
2019,03,31,17,25,12.00
2019,03,31,17,26,12.00
2019,03,31,17,27,12.00
2019,03,31,17,28,12.00
2019,03,31,17,29,12.00
2019,03,31,17,30,12.00
2019,03,31,17,31,11.90
2019,03,31,17,32,11.90
2019,03,31,17,33,11.90
2019,03,31,17,34,11.80
2019,03,31,17,35,11.80
2019,03,31,17,36,11.90
2019,03,31,17,37,11.90
2019,03,31,17,38,12.00
2019,03,31,17,39,12.10
2019,03,31,17,40,12.10
2019,03,31,17,41,12.20
2019,03,31,17,42,12.20
2019,03,31,17,43,12.30
2019,03,31,17,44,12.20
2019,03,31,17,45,12.10
2019,03,31,17,46,12.10
2019,03,31,17,47,12.00
2019,03,31,17,48,12.00
2019,03,31,17,49,11.90
2019,03,31,17,50,11.90
2019,03,31,17,51,11.90